カタログに戻る

STARLINK-35623

運用中通信VLEO
NORAD 66138·PAYLOAD·🇺🇸 United States

打ち上げ Oct 22, 2025 から Vandenberg Space Force Base

Loading…

次のパス (今後24時間)

TLE

最新Source: CelesTrak SupGP

元期: Sep 14, 2026, 23:01 UTC

1 66138C 25237AA  26257.95951389  .00026416  00000+0  78032-3 0  2572
2 66138  53.1581 239.3781 0001361  93.9354 283.2663 15.34382637    19

AllMySatでSTARLINK-35623をリアルタイム追跡

Download on the App Store